Volver al catálogo

USA 580

ActivoMilitarVLEO
NORAD 67492·PAYLOAD·🇺🇸 United States

Lanzado Jan 17, 2026 desde Vandenberg Space Force Base

Loading…

Próximos Pases (próximas 24 horas)

TLE

ObsoletoSource: Mike McCants

Época: Jul 24, 2026, 22:47 UTC

1 67492U 26011J   26205.94986119 0.00000000  00000-0  00000-0 0    03
2 67492  70.0250 142.2290 0002000 109.6223 250.3777 14.96713162    00

Sigue USA 580 en tiempo real con AllMySat

Download on the App Store